This demonstration page uses our WeatherBlox Daily Observations layout. Learn more.

Left ArrowRight Arrow

Hourly Observations for December 25, 2015

Temp ( °F °C ) Dew Point ( °F °C ) Humidity (%) Winds ( mph kmh ) Pressure ( in mb ) Visibility ( mi km ) Precip ( " mm )
12:51 am 00:51 Clear 43 6.1 40 4.4 89 89 Calm 29.85 1011 10 16 0.00 0.00
1:47 am 01:47 Clear with Mist and Fog 41 5 37 3 87 87 Calm 29.97 1015 1 1 0.00 0.00
1:51 am 01:51 Clear with Mist and Fog 40 4.4 38 3.3 93 93 NNW 3 6 29.85 1011 6 10 0.00 0.00
2:51 am 02:51 Clear 44 6.7 39 3.9 83 83 ESE 8 13 29.83 1010 10 16 0.00 0.00
3:51 am 03:51 Clear 42 5.6 38 3.3 85 85 VRB 5 7 29.84 1011 10 16 0.00 0.00
4:51 am 04:51 Clear 38 3.3 37 2.8 97 97 NNW 6 9 29.84 1010 10 16 0.00 0.00
5:51 am 05:51 Clear 40 4.4 38 3.3 93 93 Calm 29.84 1011 10 16 0.00 0.00
6:51 am 06:51 Clear 38 3.3 36 2.2 93 93 NW 6 9 29.86 1011 10 16 0.00 0.00
7:51 am 07:51 Sunny 37 2.8 36 2.2 96 96 SSW 3 6 29.88 1012 10 16 0.00 0.00
8:43 am 08:43 Sunny with Mist and Fog 44 6.7 40 4.4 85 85 Calm 29.94 1014 1 2 0.00 0.00
8:51 am 08:51 Sunny 47 8.3 41 5 80 80 E 3 6 29.87 1012 10 16 0.00 0.00
9:51 am 09:51 Sunny 55 12.8 40 4.4 57 57 E 12 19 29.87 1011 10 16 0.00 0.00
10:51 am 10:51 Sunny 55 12.8 42 5.6 62 62 NW 10 17 29.87 1012 10 16 0.00 0.00
11:51 am 11:51 Sunny 58 14.4 41 5 53 53 WNW 10 17 29.84 1010 10 16 0.00 0.00
12:51 pm 12:51 Sunny 58 14.4 39 3.9 50 50 NNW 25 41 29.80 1009 10 16 0.00 0.00
1:51 pm 13:51 Sunny 58 14.4 36 2.2 44 44 NW 21 33 29.77 1008 10 16 0.00 0.00
2:51 pm 14:51 Sunny 56 13.3 35 1.7 46 46 NW 21 33 29.78 1008 10 16 0.00 0.00
3:51 pm 15:51 Sunny 53 11.7 34 1.1 48 48 NW 23 37 29.78 1009 10 16 0.00 0.00
4:51 pm 16:51 Sunny 50 10 32 0 50 50 NW 21 33 29.80 1009 10 16 0.00 0.00
5:51 pm 17:51 Hazy 48 8.9 30 -1.1 50 50 NW 16 26 29.80 1009 1 2 0.00 0.00
5:58 pm 17:58 Hazy 48 8.9 30 -1.1 50 50 NW 17 28 29.83 1010 5 8 0.00 0.00
6:51 pm 18:51 Clear 46 7.8 29 -1.7 51 51 WNW 18 30 29.81 1010 10 16 0.00 0.00
7:51 pm 19:51 Mostly Cloudy 46 7.8 27 -2.8 47 47 WNW 18 30 29.82 1010 10 16 0.00 0.00
8:16 pm 20:16 Mostly Cloudy with Haze 46 7.8 26 -3.3 46 46 WNW 22 35 29.83 1010 1 1 0.00 0.00
8:26 pm 20:26 Mostly Cloudy with Haze 46 7.8 25 -3.9 44 44 WNW 20 31 29.85 1011 3 5 0.00 0.00
8:51 pm 20:51 Mostly Cloudy 45 7.2 25 -3.9 46 46 WNW 17 28 29.81 1009 10 16 0.00 0.00
9:51 pm 21:51 Cloudy 44 6.7 25 -3.9 47 47 WNW 17 28 29.80 1009 10 16 0.00 0.00
10:51 pm 22:51 Cloudy 44 6.7 22 -5.6 41 41 NW 14 22 29.80 1009 10 16 0.00 0.00
11:51 pm 23:51 Cloudy 43 6.1 21 -6.1 42 42 NW 18 30 29.79 1009 10 16 0.00 0.03

Powered by AerisWeather